Location: Ethel Rock
(53.4667°N, 4.5667°W)
Time: 01:09:51
(UTC+00:00)

ARIANE 5 R/B - Pass Details

Date: 24 October 2020
Orbit: 748 x 795 km, 98.6° (Epoch: 26 November)

Event Time Altitude Azimuth Distance (km) Brightness Sun altitude
Rises 04:40:48 0° 10° (N) 3,211 6.0 -21.6°
Reaches altitude 10° 04:43:20 10° 360° (N) 2,282 5.0 -21.3°
Enters shadow 04:47:00 29° 314° (NW) 1,362 3.5 -20.7°
